Location: Prairie View Elementary School
(39.8322°N, 99.5698°W)
Time: 04:17:38
(UTC+00:00)

Cosmos 2297 - Pass Details

Date: 08 December 2019
Orbit: 836 x 858 km, 71.0° (Epoch: 18 January)

Event Time Altitude Azimuth Distance (km) Brightness Sun altitude
Rises 01:37:10 0° 337° (NNW) 3,426 7.0 -26.9°
Reaches altitude 10° 01:39:39 10° 338° (NNW) 2,484 6.3 -27.3°
Enters shadow 01:44:29 65° 349° (NNW) 928 3.8 -28.3°
